Time,TemperatureF,DewpointF,PressureIn,WindDirection,WindDirectionDegrees,WindSpeedMPH,WindSpeedGustMPH,Humidity,HourlyPrecipIn,Conditions,Clouds,dailyrainin,SoftwareType,DateUTC
2013-07-28 00:02:00,81.0,76.0,29.98,SSE,161,0.0,7.0,86,0.00,,,1.25,,2013-07-28 04:02:00,
2013-07-28 00:12:00,81.0,76.0,29.98,SSE,161,0.0,7.0,86,0.00,,,1.25,,2013-07-28 04:12:00,
2013-07-28 00:22:00,81.0,76.0,29.98,SSE,159,7.0,12.0,86,0.00,,,1.25,,2013-07-28 04:22:00,
2013-07-28 00:32:00,81.0,76.0,29.98,SSE,159,7.0,12.0,86,0.00,,,1.25,,2013-07-28 04:32:00,
2013-07-28 00:43:00,80.0,74.0,29.99,SSE,155,4.0,11.0,83,0.00,,,1.25,,2013-07-28 04:43:00,
2013-07-28 00:53:00,80.0,74.0,29.98,South,169,5.0,9.0,83,0.00,,,1.25,,2013-07-28 04:53:00,
2013-07-28 01:02:00,80.0,74.0,29.98,South,169,5.0,9.0,83,0.00,,,1.25,,2013-07-28 05:02:00,
2013-07-28 01:12:00,80.0,75.0,29.98,SE,146,4.0,9.0,84,0.00,,,1.25,,2013-07-28 05:12:00,
2013-07-28 01:22:00,79.0,74.0,29.97,South,171,5.0,9.0,84,0.00,,,1.25,,2013-07-28 05:22:00,
2013-07-28 01:32:00,79.0,74.0,29.97,South,171,5.0,9.0,84,0.00,,,1.25,,2013-07-28 05:32:00,
2013-07-28 01:43:00,79.0,74.0,29.97,SE,137,3.0,6.0,85,0.00,,,1.25,,2013-07-28 05:43:00,
2013-07-28 01:52:00,78.0,73.0,29.96,SSW,196,4.0,7.0,84,0.00,,,1.25,,2013-07-28 05:52:00,
2013-07-28 02:02:00,78.0,73.0,29.96,SSW,196,4.0,7.0,84,0.00,,,1.25,,2013-07-28 06:02:00,
2013-07-28 02:12:00,78.0,73.0,29.96,SSW,198,0.0,6.0,84,0.01,,,1.26,,2013-07-28 06:12:00,
2013-07-28 02:22:00,78.0,73.0,29.96,SSW,198,0.0,0.0,85,0.01,,,1.26,,2013-07-28 06:22:00,
2013-07-28 02:32:00,78.0,73.0,29.96,SSW,198,0.0,0.0,85,0.01,,,1.26,,2013-07-28 06:32:00,
2013-07-28 02:43:00,78.0,73.0,29.95,SSW,198,0.0,0.0,86,0.01,,,1.26,,2013-07-28 06:43:00,
2013-07-28 02:52:00,77.0,72.0,29.95,SSW,198,0.0,1.0,86,0.01,,,1.26,,2013-07-28 06:52:00,
2013-07-28 03:02:00,77.0,72.0,29.95,SSW,198,0.0,1.0,86,0.01,,,1.26,,2013-07-28 07:02:00,
2013-07-28 03:12:00,77.0,72.0,29.94,SSW,198,0.0,3.0,86,0.00,,,1.26,,2013-07-28 07:12:00,
2013-07-28 03:23:00,77.0,72.0,29.94,North,355,1.0,6.0,86,0.00,,,1.26,,2013-07-28 07:23:00,
2013-07-28 03:32:00,77.0,72.0,29.94,North,355,1.0,6.0,86,0.00,,,1.26,,2013-07-28 07:32:00,
2013-07-28 03:43:00,77.0,72.0,29.95,North,355,0.0,3.0,86,0.00,,,1.26,,2013-07-28 07:43:00,
2013-07-28 03:53:00,78.0,74.0,29.94,North,355,0.0,2.0,87,0.00,,,1.26,,2013-07-28 07:53:00,
2013-07-28 04:02:00,78.0,74.0,29.94,North,355,0.0,2.0,87,0.00,,,1.26,,2013-07-28 08:02:00,
2013-07-28 04:12:00,78.0,74.0,29.93,North,355,0.0,3.0,88,0.00,,,1.26,,2013-07-28 08:12:00,
2013-07-28 04:22:00,78.0,74.0,29.94,North,355,0.0,0.0,88,0.00,,,1.26,,2013-07-28 08:22:00,
2013-07-28 04:33:00,78.0,74.0,29.94,North,355,0.0,0.0,88,0.00,,,1.26,,2013-07-28 08:33:00,
2013-07-28 04:42:00,78.0,74.0,29.94,North,355,0.0,0.0,89,0.00,,,1.26,,2013-07-28 08:42:00,
2013-07-28 04:53:00,78.0,74.0,29.94,North,355,0.0,0.0,89,0.00,,,1.26,,2013-07-28 08:53:00,
2013-07-28 05:02:00,78.0,74.0,29.94,North,355,0.0,0.0,89,0.00,,,1.26,,2013-07-28 09:02:00,
2013-07-28 05:12:00,78.0,74.0,29.95,North,355,0.0,0.0,89,0.00,,,1.26,,2013-07-28 09:12:00,
2013-07-28 05:22:00,77.0,74.0,29.94,North,355,0.0,2.0,90,0.00,,,1.26,,2013-07-28 09:22:00,
2013-07-28 05:32:00,77.0,74.0,29.94,North,355,0.0,2.0,90,0.00,,,1.26,,2013-07-28 09:32:00,
2013-07-28 05:43:00,78.0,75.0,29.94,North,355,0.0,0.0,90,0.00,,,1.26,,2013-07-28 09:43:00,
2013-07-28 05:53:00,78.0,75.0,29.94,North,355,0.0,1.0,90,0.00,,,1.26,,2013-07-28 09:53:00,
2013-07-28 06:02:00,78.0,75.0,29.94,North,355,0.0,1.0,90,0.00,,,1.26,,2013-07-28 10:02:00,
2013-07-28 06:12:00,78.0,75.0,29.95,North,355,0.0,0.0,90,0.00,,,1.26,,2013-07-28 10:12:00,
2013-07-28 06:22:00,78.0,74.0,29.95,North,355,0.0,4.0,89,0.00,,,1.26,,2013-07-28 10:22:00,
2013-07-28 06:33:00,78.0,74.0,29.95,North,355,0.0,4.0,89,0.00,,,1.26,,2013-07-28 10:33:00,
2013-07-28 06:42:00,78.0,75.0,29.96,SSE,157,0.0,3.0,90,0.00,,,1.26,,2013-07-28 10:42:00,
2013-07-28 06:52:00,78.0,75.0,29.96,SSE,157,0.0,3.0,90,0.00,,,1.26,,2013-07-28 10:52:00,
2013-07-28 07:12:00,78.0,74.0,29.97,SSE,157,0.0,0.0,89,0.00,,,1.26,,2013-07-28 11:12:00,
2013-07-28 07:22:00,78.0,75.0,29.97,SSE,157,0.0,1.0,90,0.00,,,1.26,,2013-07-28 11:22:00,
2013-07-28 07:33:00,78.0,75.0,29.97,SSE,157,0.0,1.0,90,0.00,,,1.26,,2013-07-28 11:33:00,
2013-07-28 07:43:00,78.0,75.0,29.97,SSE,157,0.0,0.0,90,0.00,,,1.26,,2013-07-28 11:43:00,
2013-07-28 07:53:00,78.0,75.0,29.98,SSE,157,0.0,0.0,90,0.00,,,1.26,,2013-07-28 11:53:00,
2013-07-28 08:02:00,78.0,75.0,29.98,SSE,157,0.0,0.0,90,0.00,,,1.26,,2013-07-28 12:02:00,
2013-07-28 08:12:00,78.0,75.0,29.98,SSE,161,2.0,6.0,90,0.00,,,1.26,,2013-07-28 12:12:00,
2013-07-28 08:22:00,79.0,75.0,29.98,SSE,159,3.0,6.0,89,0.00,,,1.26,,2013-07-28 12:22:00,
2013-07-28 08:33:00,79.0,75.0,29.98,SSE,159,3.0,6.0,89,0.00,,,1.26,,2013-07-28 12:33:00,
2013-07-28 08:43:00,79.0,75.0,29.98,SSE,160,0.0,1.0,89,0.00,,,1.26,,2013-07-28 12:43:00,
2013-07-28 08:53:00,80.0,76.0,29.98,South,169,1.0,4.0,88,0.00,,,1.26,,2013-07-28 12:53:00,
2013-07-28 09:02:00,80.0,76.0,29.98,South,169,1.0,4.0,88,0.00,,,1.26,,2013-07-28 13:02:00,
2013-07-28 09:12:00,80.0,76.0,29.99,South,170,0.0,3.0,87,0.00,,,1.26,,2013-07-28 13:12:00,
2013-07-28 09:22:00,81.0,76.0,29.99,SSE,166,0.0,3.0,85,0.00,,,1.26,,2013-07-28 13:22:00,
2013-07-28 09:32:00,81.0,76.0,29.99,SSE,166,0.0,3.0,85,0.00,,,1.26,,2013-07-28 13:32:00,
2013-07-28 09:43:00,82.0,76.0,29.99,South,169,1.0,5.0,83,0.00,,,1.26,,2013-07-28 13:43:00,
2013-07-28 09:52:00,83.0,77.0,30.00,SSE,166,1.0,6.0,81,0.00,,,1.26,,2013-07-28 13:52:00,
2013-07-28 10:02:00,83.0,77.0,30.00,SSE,166,1.0,6.0,81,0.00,,,1.26,,2013-07-28 14:02:00,
2013-07-28 10:12:00,83.0,76.0,30.00,SE,146,0.0,8.0,79,0.00,,,1.26,,2013-07-28 14:12:00,
2013-07-28 10:23:00,84.0,76.0,30.00,SE,146,1.0,4.0,77,0.00,,,1.24,,2013-07-28 14:23:00,
2013-07-28 10:33:00,84.0,76.0,30.00,SE,146,1.0,4.0,77,0.00,,,1.24,,2013-07-28 14:33:00,
2013-07-28 10:43:00,84.0,76.0,30.01,SSE,149,3.0,7.0,76,0.00,,,1.24,,2013-07-28 14:43:00,
2013-07-28 10:53:00,84.0,75.0,30.01,SE,126,1.0,8.0,75,0.00,,,1.24,,2013-07-28 14:53:00,
2013-07-28 11:03:00,84.0,75.0,30.01,SE,126,1.0,8.0,75,0.00,,,1.24,,2013-07-28 15:03:00,
2013-07-28 11:13:00,85.0,76.0,30.01,SE,143,6.0,9.0,75,0.00,,,1.24,,2013-07-28 15:13:00,
2013-07-28 11:22:00,84.0,75.0,30.01,South,188,5.0,9.0,75,0.00,,,1.24,,2013-07-28 15:22:00,
2013-07-28 11:32:00,84.0,75.0,30.01,South,188,5.0,9.0,75,0.00,,,1.24,,2013-07-28 15:32:00,
2013-07-28 11:43:00,84.0,76.0,30.01,South,171,3.0,9.0,76,0.00,,,1.24,,2013-07-28 15:43:00,
2013-07-28 11:53:00,85.0,77.0,30.01,SSE,155,3.0,9.0,76,0.00,,,1.24,,2013-07-28 15:53:00,
2013-07-28 12:03:00,85.0,77.0,30.01,SSE,155,3.0,9.0,76,0.00,,,1.24,,2013-07-28 16:03:00,
2013-07-28 12:12:00,85.0,77.0,30.02,SSE,149,2.0,10.0,77,0.00,,,1.24,,2013-07-28 16:12:00,
2013-07-28 12:22:00,85.0,76.0,30.01,SE,142,5.0,12.0,75,0.00,,,0.94,,2013-07-28 16:22:00,
2013-07-28 12:33:00,85.0,76.0,30.01,SE,142,5.0,12.0,75,0.00,,,0.94,,2013-07-28 16:33:00,
2013-07-28 12:43:00,85.0,75.0,30.02,SSE,155,3.0,9.0,73,0.00,,,0.94,,2013-07-28 16:43:00,
2013-07-28 12:52:00,86.0,76.0,30.02,South,180,2.0,10.0,73,0.00,,,0.94,,2013-07-28 16:52:00,
2013-07-28 13:02:00,86.0,76.0,30.02,South,180,2.0,10.0,73,0.00,,,0.94,,2013-07-28 17:02:00,
2013-07-28 13:13:00,86.0,75.0,30.01,SE,127,4.0,9.0,71,0.00,,,0.94,,2013-07-28 17:13:00,
2013-07-28 13:23:00,85.0,75.0,30.01,SE,127,4.0,10.0,72,0.00,,,0.01,,2013-07-28 17:23:00,
2013-07-28 13:32:00,85.0,75.0,30.01,SE,127,4.0,10.0,72,0.00,,,0.01,,2013-07-28 17:32:00,
2013-07-28 13:43:00,85.0,76.0,30.01,ESE,107,3.0,9.0,74,0.00,,,0.01,,2013-07-28 17:43:00,
2013-07-28 13:53:00,85.0,76.0,30.01,SSE,151,4.0,11.0,75,0.00,,,0.01,,2013-07-28 17:53:00,
2013-07-28 14:03:00,85.0,76.0,30.01,SSE,151,4.0,11.0,75,0.00,,,0.01,,2013-07-28 18:03:00,
2013-07-28 14:13:00,85.0,77.0,30.01,ESE,114,3.0,9.0,76,0.00,,,0.01,,2013-07-28 18:13:00,
2013-07-28 14:22:00,85.0,77.0,30.02,SE,133,3.0,7.0,76,0.00,,,0.01,,2013-07-28 18:22:00,
2013-07-28 14:33:00,85.0,77.0,30.02,SE,133,3.0,7.0,76,0.00,,,0.01,,2013-07-28 18:33:00,
2013-07-28 14:43:00,84.0,76.0,30.01,SE,145,3.0,9.0,77,0.00,,,0.01,,2013-07-28 18:43:00,
2013-07-28 14:52:00,84.0,75.0,30.01,West,271,1.0,4.0,75,0.00,,,0.01,,2013-07-28 18:52:00,
2013-07-28 15:02:00,84.0,75.0,30.01,West,271,1.0,4.0,75,0.00,,,0.01,,2013-07-28 19:02:00,
2013-07-28 15:12:00,84.0,76.0,30.01,West,271,0.0,2.0,77,0.00,,,0.01,,2013-07-28 19:12:00,
2013-07-28 15:22:00,83.0,75.0,30.00,West,271,0.0,3.0,76,0.00,,,0.01,,2013-07-28 19:22:00,
2013-07-28 15:33:00,83.0,75.0,30.00,West,271,0.0,3.0,76,0.00,,,0.01,,2013-07-28 19:33:00,
2013-07-28 15:43:00,84.0,76.0,30.00,SE,128,2.0,4.0,76,0.00,,,0.01,,2013-07-28 19:43:00,
2013-07-28 15:52:00,84.0,76.0,29.99,SE,125,1.0,5.0,76,0.00,,,0.01,,2013-07-28 19:52:00,
2013-07-28 16:03:00,84.0,76.0,29.99,SE,125,1.0,5.0,76,0.00,,,0.01,,2013-07-28 20:03:00,
2013-07-28 16:13:00,84.0,76.0,30.00,ESE,108,0.0,3.0,76,0.00,,,0.01,,2013-07-28 20:13:00,
2013-07-28 16:23:00,84.0,76.0,29.99,ESE,113,1.0,4.0,76,0.00,,,0.01,,2013-07-28 20:23:00,
2013-07-28 16:33:00,84.0,76.0,29.99,ESE,113,1.0,4.0,76,0.00,,,0.01,,2013-07-28 20:33:00,
2013-07-28 16:43:00,84.0,76.0,29.99,ESE,122,0.0,4.0,76,0.00,,,0.01,,2013-07-28 20:43:00,
2013-07-28 16:52:00,84.0,75.0,29.99,SE,129,1.0,7.0,74,0.00,,,0.01,,2013-07-28 20:52:00,
2013-07-28 17:03:00,84.0,75.0,29.99,SE,129,1.0,7.0,74,0.00,,,0.01,,2013-07-28 21:03:00,
2013-07-28 17:13:00,84.0,74.0,29.98,SE,130,2.0,6.0,73,0.00,,,0.01,,2013-07-28 21:13:00,
2013-07-28 17:22:00,85.0,76.0,29.98,ESE,106,0.0,5.0,74,0.00,,,0.01,,2013-07-28 21:22:00,
2013-07-28 17:33:00,85.0,76.0,29.98,ESE,106,0.0,5.0,74,0.00,,,0.01,,2013-07-28 21:33:00,
2013-07-28 17:44:00,85.0,76.0,29.98,SE,137,1.0,5.0,74,0.00,,,0.01,,2013-07-28 21:44:00,
2013-07-28 17:52:00,85.0,76.0,29.98,SE,143,0.0,4.0,75,0.00,,,0.01,,2013-07-28 21:52:00,
2013-07-28 18:02:00,85.0,76.0,29.98,SE,143,0.0,4.0,75,0.00,,,0.01,,2013-07-28 22:02:00,
2013-07-28 18:12:00,85.0,76.0,29.98,SE,140,1.0,4.0,75,0.00,,,0.01,,2013-07-28 22:12:00,
2013-07-28 18:22:00,85.0,76.0,29.99,SE,142,1.0,5.0,75,0.00,,,0.01,,2013-07-28 22:22:00,
2013-07-28 18:32:00,85.0,76.0,29.99,SE,142,1.0,5.0,75,0.00,,,0.01,,2013-07-28 22:32:00,
2013-07-28 18:43:00,85.0,77.0,29.99,SE,134,0.0,7.0,76,0.00,,,0.01,,2013-07-28 22:43:00,
2013-07-28 18:52:00,84.0,76.0,29.99,ESE,121,3.0,7.0,77,0.00,,,0.01,,2013-07-28 22:52:00,
2013-07-28 19:03:00,84.0,76.0,29.99,ESE,121,3.0,7.0,77,0.00,,,0.01,,2013-07-28 23:03:00,
2013-07-28 19:12:00,84.0,76.0,29.99,SE,124,1.0,7.0,77,0.00,,,0.01,,2013-07-28 23:12:00,
2013-07-28 19:22:00,84.0,76.0,29.99,SE,124,1.0,7.0,78,0.00,,,0.01,,2013-07-28 23:22:00,
2013-07-28 19:32:00,84.0,76.0,29.99,SE,124,1.0,7.0,78,0.00,,,0.01,,2013-07-28 23:32:00,
2013-07-28 19:43:00,84.0,76.0,29.99,SSE,167,1.0,7.0,77,0.00,,,0.01,,2013-07-28 23:43:00,
2013-07-28 19:53:00,84.0,76.0,30.00,SE,124,1.0,6.0,77,0.00,,,0.01,,2013-07-28 23:53:00,
2013-07-28 20:03:00,84.0,76.0,30.00,SE,124,1.0,6.0,77,0.00,,,0.01,,2013-07-29 00:03:00,
2013-07-28 20:22:00,83.0,75.0,30.02,SE,136,0.0,4.0,77,0.00,,,0.01,,2013-07-29 00:22:00,
2013-07-28 20:32:00,83.0,75.0,30.02,SE,136,0.0,4.0,77,0.00,,,0.01,,2013-07-29 00:32:00,
2013-07-28 20:43:00,83.0,75.0,30.02,SE,134,0.0,3.0,78,0.00,,,0.01,,2013-07-29 00:43:00,
2013-07-28 20:52:00,83.0,75.0,30.03,SE,134,0.0,2.0,78,0.00,,,0.01,,2013-07-29 00:52:00,
2013-07-28 21:02:00,83.0,75.0,30.03,SE,134,0.0,2.0,78,0.00,,,0.01,,2013-07-29 01:02:00,
2013-07-28 21:14:00,83.0,76.0,30.04,SE,134,0.0,2.0,79,0.00,,,0.01,,2013-07-29 01:14:00,
2013-07-28 21:28:00,83.0,76.0,30.04,SE,134,0.0,2.0,79,0.00,,,0.01,,2013-07-29 01:28:00,
2013-07-28 21:36:00,83.0,76.0,30.03,SE,134,0.0,1.0,79,0.00,,,0.01,,2013-07-29 01:36:00,
2013-07-28 21:45:00,82.0,75.0,30.04,SE,134,0.0,1.0,80,0.00,,,0.01,,2013-07-29 01:45:00,
2013-07-28 21:57:00,82.0,75.0,30.04,SE,134,0.0,1.0,80,0.00,,,0.01,,2013-07-29 01:57:00,
2013-07-28 22:06:00,82.0,75.0,30.04,SE,134,0.0,1.0,80,0.00,,,0.01,,2013-07-29 02:06:00,
2013-07-28 22:14:00,82.0,75.0,30.04,SE,134,0.0,1.0,80,0.00,,,0.01,,2013-07-29 02:14:00,
2013-07-28 22:25:00,82.0,76.0,30.05,SE,134,0.0,0.0,81,0.00,,,0.01,,2013-07-29 02:25:00,
2013-07-28 22:37:00,82.0,76.0,30.05,SE,134,0.0,0.0,81,0.00,,,0.01,,2013-07-29 02:37:00,
2013-07-28 22:47:00,82.0,76.0,30.06,SE,134,0.0,1.0,82,0.00,,,0.01,,2013-07-29 02:47:00,
2013-07-28 23:17:00,82.0,76.0,30.05,SE,134,0.0,2.0,82,0.00,,,0.01,,2013-07-29 03:17:00,
2013-07-28 23:48:00,82.0,76.0,30.05,SE,134,0.0,2.0,82,0.00,,,0.01,,2013-07-29 03:48:00,
2013-07-28 23:56:00,82.0,76.0,30.05,SE,134,0.0,3.0,82,0.00,,,0.01,,2013-07-29 03:56:00,